Boscobel, WI

11:33 PM CDT on September 28, 2016 (GMT -0500)
Boscobel

Weather History for KOVS - November, 2012

Change the Weather History Date:

Sunday, November 18, 2012

  Actual Average (KPDC) Record (KPDC)
Temperature  
Mean Temperature 48 °F -  
Max Temperature 59 °F 47 °F 71 °F (1953)
Min Temperature 36 °F 29 °F 7 °F (2014)
Degree Days  
Heating Degree Days 18    
Moisture  
Dew Point 33 °F    
Average Humidity 59    
Maximum Humidity 82    
Minimum Humidity 38    
Precipitation  
Precipitation 0.00 in - - ()
Sea Level Pressure  
Sea Level Pressure 30.32 in    
Wind  
Wind Speed 3 mph (South)    
Max Wind Speed 7 mph    
Max Gust Speed -    
Visibility 8 miles    
Events      
Averages and records for this station are not official NWS values.
T = Trace of Precipitation, MM = Missing Value Source: NWS Daily Summary

Daily Weather History Graph

Daily Weather History Graph

Search for Another Location

Airport or City:

Trip Planner

Search our weather history database for the weather conditions in past years. The results will help you decide how hot, cold, wet, or windy it might be!

Date:

Astronomy

Nov. 18, 2012 Rise Set
Actual Time 6:59 AM CST 4:35 PM CST
Civil Twilight 6:28 AM CST 5:06 PM CST
Nautical Twilight 5:54 AM CST 5:41 PM CST
Astronomical Twilight 5:20 AM CST 6:15 PM CST
Moon 11:25 AM CST (11/18) 9:57 PM CST (11/18)
Length of Visible Light 10h 37m
Length of Day
9h 35m
Waxing Crescent, 30% of the Moon is Illuminated
Nov 18
Waxing Crescent
Nov 20
First Quarter
Nov 28
Full
Dec 6
Last Quarter
Dec 13
New

Hourly Weather History & Observations

Time (CST) Temp. Windchill Dew Point Humidity Pressure Visibility Wind Dir Wind Speed Gust Speed Precip Events Conditions
12:53 AM 42.1 °F 40.2 °F 32.0 °F 67% 30.40 in 8.0 mi Variable 3.5 mph - N/A   Clear
1:53 AM 41.0 °F - 32.0 °F 70% 30.39 in 7.0 mi Calm Calm - N/A   Clear
2:53 AM 42.1 °F 38.4 °F 33.1 °F 70% 30.38 in 7.0 mi South 5.8 mph - N/A   Clear
3:53 AM 42.1 °F 40.2 °F 33.1 °F 70% 30.38 in 7.0 mi South 3.5 mph - N/A   Clear
4:53 AM 39.9 °F - 32.0 °F 73% 30.37 in 7.0 mi Calm Calm - N/A   Clear
5:53 AM 36.0 °F - 30.9 °F 82% 30.36 in 6.0 mi Calm Calm - N/A   Haze
6:53 AM 36.0 °F - 30.0 °F 79% 30.36 in 4.0 mi Calm Calm - N/A   Haze
7:53 AM 37.0 °F - 32.0 °F 82% 30.36 in 5.0 mi Calm Calm - N/A   Haze
8:53 AM 45.0 °F 41.2 °F 33.1 °F 63% 30.34 in 7.0 mi South 6.9 mph - N/A   Clear
9:53 AM 48.9 °F - 33.1 °F 54% 30.34 in 9.0 mi Variable 3.5 mph - N/A   Clear
10:53 AM 54.0 °F - 33.1 °F 45% 30.32 in 10.0 mi South 4.6 mph - N/A   Clear
11:53 AM 57.0 °F - 33.1 °F 40% 30.30 in 10.0 mi Variable 4.6 mph - N/A   Clear
12:53 PM 59.0 °F - 33.1 °F 38% 30.28 in 10.0 mi South 5.8 mph - N/A   Clear
2:53 PM 57.0 °F - 33.1 °F 40% 30.27 in 10.0 mi Variable 5.8 mph - N/A   Clear
3:53 PM 55.0 °F - 33.1 °F 43% 30.27 in 10.0 mi Variable 5.8 mph - N/A   Clear
4:53 PM 53.1 °F - 33.1 °F 47% 30.27 in 10.0 mi Variable 3.5 mph - N/A   Clear
5:53 PM 50.0 °F - 34.0 °F 54% 30.27 in - Calm Calm - N/A   Clear
6:53 PM 50.0 °F - 36.0 °F 59% 30.28 in - Calm Calm - N/A   Clear
7:53 PM 51.1 °F - 34.0 °F 52% 30.27 in - Variable 3.5 mph - N/A   Clear
8:53 PM 50.0 °F - 33.1 °F 52% 30.27 in - South 6.9 mph - N/A   Clear
9:53 PM 48.0 °F - 33.1 °F 56% 30.26 in - Calm Calm - N/A   Clear
10:53 PM 48.0 °F - 33.1 °F 56% 30.27 in - South 5.8 mph - N/A   Clear
11:53 PM 48.0 °F - 34.0 °F 58% 30.26 in - SSW 4.6 mph - N/A   Overcast